Regional Weather Roundup
Issued by NWS Midland/Odessa, TX

Skip options and go directly to product.
Home | Oldest Version | Previous Version | Current Version | All | Text Only | Save Text | Print | Product List | Glossary On

Skip product version selection by date and time.   
123
ASUS44 KMAF 141901
RWRMAF
MIDLAND AREA WEATHER ROUNDUP
NATIONAL WEATHER SERVICE MIDLAND TX
100 PM CST SUN FEB 14 2016

...IN SOUTHWEST TEXAS AND SOUTHEAST NEW MEXICO...

CITY           SKY/WX    TMP DP  RH WIND       PRES   REMARKS
ALPINE         MOSUNNY   71  20  15 NE16      30.08S
ANDREWS        FAIR      60  26  27 NE17G24   30.02S
ARTESIA        SUNNY     59  25  27 MISG      30.08F
BIG SPRING     CLOUDY    55  34  45 N10G16    30.00F
CARLSBAD       SUNNY     61  25  25 N10       30.06F
DRYDEN           N/A     69  45  41 SW9G16    29.90F
FORT STOCKTON  MOSUNNY   67  35  30 NW14      29.99F
GUAD PASS      SUNNY     59  15  18 E17G24    30.09F
HOBBS          SUNNY     59  18  20 N14G20    30.06F
MARFA          CLOUDY    73  13  10 W12G21    30.05F
MIDLAND AIRPK  MOSUNNY   61  35  37 N9G18     30.00F
MIDLAND INTL   MOSUNNY   61  36  39 N18       29.98F
ODESSA         SUNNY     61  34  36 N16G24    29.99F
PECOS          CLOUDY    62  32  32 N12       30.01F
PRESIDIO       FAIR      68  24  19 CALM      29.98F
SEMINOLE       CLOUDY    58  22  25 NE14G21   30.04F
SNYDER           N/A     55  36  48 N15       29.98S
WINK           SUNNY     65  32  29 N13G20    30.00F
$$
...OTHER STATIONS IN TEXAS...

CITY           SKY/WX    TMP DP  RH WIND       PRES   REMARKS
ABILENE        CLOUDY    58  41  53 NW14      29.94S
AMARILLO       CLOUDY    51  23  33 VRB6      30.00F
AUSTIN         CLOUDY    72  58  61 SW16G24   29.92F
BROWNSVILLE    MOSUNNY   77  59  53 S21G33    29.96F
CORPUS CHRISTI PTSUNNY   77  56  48 S20G28    29.95F
DALLAS FTW     CLOUDY    65  52  62 S15       29.90F
DEL RIO        CLOUDY    66  53  63 VRB6      29.91F
EL PASO        MOSUNNY   71  12  10 N5        30.06F
HOUSTON INT    PTSUNNY   73  52  47 S13G21    29.99F
LUBBOCK        CLOUDY    60  15  17 NE17      29.98F
SAN ANGELO     PTSUNNY   70  48  45 W6        29.90F
SAN ANTONIO    CLOUDY    68  57  68 S12G18    29.95F
WACO           CLOUDY    67  55  65 S16       29.93F
WICHITA FALLS  NOT AVBL
$$
...OTHER LOCATIONS IN NEW MEXICO...

CITY           SKY/WX    TMP DP  RH WIND       PRES   REMARKS
ALAMAGORDO     SUNNY     66  14  13 CALM      30.05F
ALBUQUERQUE    PTSUNNY   57  16  20 CALM      30.09F
CANNON AFB     SUNNY     49  19  31 E6        30.04F
CLOVIS         CLOUDY    48  21  34 S3        30.06F
HOLLOMAN AFB   SUNNY     69  11  11 W10       30.02F
ROSWELL        SUNNY     59  21  23 CALM      30.07F
RUIDOSO          N/A     55  14  19 S10G16    30.13F
SANTA FE       SUNNY     53  16  23 SW10      30.05F
TRUTH OR CONSE SUNNY     64  11  12 NE7       30.08F
TUCUMCARI      SUNNY     53  18  25 S9        30.00F
$$

USA.gov is the U.S. government's official web portal to all federal, state and local government web resources and services.